Preview of NWS' New Version of Forecast
This preview is not operational and should not be used for support decisions.

Regional Weather Roundup (RWR)

Issued by Philadelphia/Mt Holly (PHI)

                            
000
ASUS41 KPHI 190512
RWRPHI

REGIONAL WEATHER ROUNDUP
NATIONAL WEATHER SERVICE MOUNT HOLLY NJ
1200 AM EST SAT JAN 19 2019

NOTE:  "FAIR" INDICATES FEW OR NO CLOUDS BELOW 12,000 FEET WITH NO
SIGNIFICANT WEATHER AND/OR OBSTRUCTIONS TO VISIBILITY.

 * = STATION DOES NOT REPORT PRECIPITATION (E.G. RAIN, SNOW, ETC.) 
        OR FOG.

NJZ015>026-190600-
SOUTHERN NEW JERSEY
  
CITY           SKY/WX    TMP DP  RH WIND       PRES   REMARKS
POMONA         FAIR      29  29 100 NW3       30.20R FOG              
WILDWOOD*      CLOUDY    34  32  92 N3        30.21  FOG              
MILLVILLE      CLOUDY    30  29  96 NW3       30.20S FOG              
WRIGHTSTOWN    CLOUDY    32  30  95 NW6       30.17R WCI  26          
MOUNT HOLLY    CLOUDY    34  31  88 CALM      30.20R FOG              
TRENTON        CLOUDY    34  30  85 NW6       30.19R FOG     WCI  29  

$$
NJZ001>014-190600-
NORTHERN NEW JERSEY
  
CITY           SKY/WX    TMP DP  RH WIND       PRES   REMARKS
SUSSEX         FAIR      26  21  81 CALM      30.16R                  
ANDOVER*         N/A     25  22  88 CALM      30.17R                  
MORRISTOWN     FAIR      27  27 100 CALM      30.18R FOG              
NEWARK         MOCLDY    35  27  72 W7        30.19R WCI  29          
TETERBORO      FAIR      33  23  66 VRB5      30.18R WCI  29          
CALDWELL       FAIR      29  23  78 CALM      30.19R                  
SOMERVILLE     CLOUDY    29  28  96 CALM      30.18R FOG              
ALLAIRE*       MOCLDY    30  28  92 W5        30.20R FOG     WCI  25  
TOMS RIVER*    FAIR      26  25  96 CALM      30.20R FOG              

$$
PAZ043-044-047-054-055-060>062-066>071-190600-
EASTERN PENNSYLVANIA
  
CITY           SKY/WX    TMP DP  RH WIND       PRES   REMARKS
PHILADELPHIA   CLOUDY    35  30  82 NW5       30.21F WCI  31          
NORTH PHILA    CLOUDY    37  30  75 NW7       30.21S HAZE    WCI  32  
BLUE BELL*     CLOUDY    32  32 100 CALM      30.21S                  
DOYLESTOWN     CLOUDY    32  29  88 CALM      30.18S                  
QUAKERTOWN*      N/A     30  30 100 CALM      30.19  FOG              
PERKASIE*      CLOUDY    30  30 100 CALM      30.19S FOG              
POTTSTOWN      CLOUDY    31  30  96 NW3       30.21S FOG              
LANCASTER      CLOUDY    33  31  92 CALM      30.19F FOG              
COATESVILLE    CLOUDY    32  30  93 CALM      30.19F FOG              
READING        CLOUDY    34  31  88 NW3       30.19S                  
ALLENTOWN      MOCLDY    34  26  72 CALM      30.19R                  
MOUNT POCONO   CLOUDY    27  19  72 W7        30.10R WCI  19          
HAZLETON       CLOUDY   N/A N/A N/A CALM      30.15R                  
LEHIGHTON      CLOUDY    32  30  93 CALM      30.20R                  
WILKES BARRE   CLOUDY    32  18  56 W6        30.15R WCI  26          

$$
DEZALL-MDZ008-012-015-019-020-190600-
DELAWARE AND EASTERN MARYLAND
  
CITY           SKY/WX    TMP DP  RH WIND       PRES   REMARKS
WILMINGTON     CLOUDY    35  33  92 NW3       30.21F FOG              
DOVER          CLOUDY    34  32  92 CALM      30.20S                  
GEORGETOWN     CLOUDY    32  29  88 S3        30.21S FOG              
EASTON         CLOUDY    35  34  96 CALM      30.24F FOG              
PATUXENT       CLOUDY    35  35 100 CALM      30.21  FOG              
OCEAN CITY     MOCLDY    32  31  96 SW3       30.22R FOG              
WALLOPS ISLAND CLOUDY    37  33  85 CALM      30.22S                  
CAMBRIDGE      CLOUDY    34  34 100 CALM      30.21F FOG              
SALISBURY      CLOUDY    32  32 100 CALM      30.21S FOG              

$$
PAZ001-021-NYZ056-072-MDZ011-DCZ001-190600-
OTHER NEARBY LOCATIONS
  
CITY           SKY/WX    TMP DP  RH WIND       PRES   REMARKS
HARRISBURG     CLOUDY    34  31  88 CALM      30.18F FOG              
STATE COLLEGE  CLOUDY    32  26  79 CALM      30.16R                  
WILLIAMSPORT   CLOUDY    32  25  75 CALM      30.17S                  
BINGHAMTON     FAIR      24  19  81 NW8       30.10R WCI  15          
NEW YORK CITY  FAIR      36  23  59 MISG      30.20R                  
BALTIMORE      FAIR      33  32  96 N5        30.20S WCI  29          
WASHINGTON DC  CLOUDY    38  35  89 S3        30.21S                  

$$